Regional Weather Roundup
Issued by NWS

Home | Current Version | Previous Version | Graphics & Text | Print | Product List | Glossary On
Versions: 1 2 3 4 5 6 7 8 9 10 11 12 13 14 15 16 17 18 19 20 21 22 23 24 25 26 27 28 29 30 31 32 33 34 35 36 37 38 39 40 41 42 43 44 45 46 47 48 49 50
000
ASUS45 KTFX 300804
RWRMT
MONTANA HOURLY WEATHER ROUNDUP
NATIONAL WEATHER SERVICE GREAT FALLS MT
204 AM MDT TUE SEP 30 2014

NOTE: "FAIR" INDICATES FEW OR NO CLOUDS BELOW 12000 FEET WITH NO
SIGNIFICANT WEATHER AND/OR OBSTRUCTIONS TO VISIBILITY.

* THESE STATIONS ARE NOT UNDER NWS QUALITY CONTROL. THEY DO NOT
   REPORT WEATHER SUCH AS PRECIPITATION OR FOG.

MTZ001>007-043-300900-
WEST OF THE DIVIDE
CITY           SKY/WX    TMP DP  RH WIND       PRES   REMARKS
KALISPELL      CLOUDY    55  48  77 SE10      29.76R
MISSOULA       CLOUDY    50  50 100 CALM      29.84F
BUTTE          LGT RAIN  46  45  96 NW3       29.89R
MULLAN PASS    CLOUDY    43  43 100 VRB6      29.86F
* ESSEX        N/A       56  42  60 S3G9       N/A
* LINCOLN      N/A       48  46  93 S5G11      N/A
* LOOKOUT PASS N/A       50  44  80 N1G6       N/A
* POLSON       N/A       48  48 100 SE1        N/A
* RONAN APT    CLOUDY    52  48  86 N/A        N/A
* SEELEY LAKE  N/A       47  46  96 N/A        N/A
* THOMP F APT  CLOUDY    41  40  96 N/A        N/A
* YAAK HILL    N/A       52  46  80 N/A        N/A
$$

MTZ008-052>055-300900-
SOUTHWEST MONTANA
CITY           SKY/WX    TMP DP  RH WIND       PRES   REMARKS
BOZEMAN        LGT RAIN  52  45  77 CALM      29.85R
DILLON         CLOUDY    50  43  77 SW16      29.87S
W YELLOWSTONE  CLOUDY    41  39  93 CALM      29.97S
* THREE FORKS  CLOUDY    54  30  40 N/A        N/A
* BOULDER HILL N/A       48  37  66 S5         N/A
* RAYNOLDS PAS N/A       43  25  49 S9G14      N/A
* WHITEHALL    N/A       53  43  69 W6G14      N/A
* WISE RIVER   N/A       45  40  83 W10G18     N/A
$$

MTZ009>010-012-014-046-048-049-054-300900-
EAST SLOPES AND CENTRAL MONTANA
CITY           SKY/WX    TMP DP  RH WIND       PRES   REMARKS
CUT BANK       CLOUDY    57  43  60 W17G24    29.65R
GREAT FALLS    CLOUDY    55  45  69 SW14      29.70R
HELENA         CLOUDY    55  43  64 W10       29.79R
MALMSTROM AFB  CLOUDY    57  45  64 SW21      29.71S
* CONRAD       CLOUDY    59  46  62 SW14G20    N/A
* DEARBORN     N/A       58  43  58 E2G8       N/A
* EAST GLACIER N/A       52  41  66 W17G27     N/A
* MONARCH      N/A       50  34  54 SW14G21    N/A
* PENDROY      N/A       55  39  55 W17G24     N/A
* SAINT MARY   N/A       52  43  72 S10G21     N/A
* SWEET GRASS  N/A       54  49  83 W17G26     N/A
$$

MTZ011-013-016-021-035-040-045-047-050-051-300900-
NORTH CENTRAL MONTANA
CITY           SKY/WX    TMP DP  RH WIND       PRES   REMARKS
LEWISTOWN      CLOUDY    54  43  67 SW17      29.73F
* CHESTER      N/A       51  47  86 SE1G6      N/A
* DENTON       N/A       51  45  80 S6         N/A
* GEYSER       N/A       54  42  64 SW15       N/A
* JUDITH GAP   N/A       43  43 100 N/A        N/A
* LOMA         N/A       52  49  90 N6         N/A
$$

MTZ017>020-022>027-061-062-300900-
NORTHEAST MONTANA
CITY           SKY/WX    TMP DP  RH WIND       PRES   REMARKS
GLASGOW        CLOUDY    50  46  86 SE12      29.72F
GLENDIVE       CLOUDY    52  48  86 SE3       29.78F
JORDAN         CLOUDY    50  48  93 CALM      29.72F
SIDNEY         CLOUDY    54  52  93 S9        29.80F
WOLF POINT     CLOUDY    54  50  86 SE5       29.76F
* BEAVER HILL  N/A       52  51  96 SE12G17    N/A
* CIRCLE       N/A       51  49  93 SE9        N/A
* NAVAJO       N/A       48  48 100 S13        N/A
* SACO         N/A       49  48  96 E14G19     N/A
$$

MTZ028>042-056>058-300900-
SOUTHCENTRAL AND SOUTHEAST MONTANA
CITY           SKY/WX    TMP DP  RH WIND       PRES   REMARKS
BAKER          CLOUDY    54  52  93 SE10      29.78F
BILLINGS       FOG       46  45  96 SW9       29.74F VSB M1/4
LIVINGSTON     LGT RAIN  54  43  67 W15G29    29.80S
MILES CITY     CLOUDY    54  48  80 SE12      29.74F
* LAUREL APT   CLEAR     46  41  83 N/A        N/A
* ROUNDUP APT  CLEAR     46  43  89 N/A        N/A
* HYSHAM       N/A       52  49  90 W4         N/A
* LAME DEER    N/A       48  48 100 SW4        N/A
* REED POINT   N/A       42  41  96 W1         N/A
* ROSCOE HILL  N/A       52  25  35 W2G16      N/A
$$

REGIONAL REPORTS...DAKOTAS
CITY           SKY/WX    TMP DP  RH WIND       PRES   REMARKS
WILLISTON      CLOUDY    54  48  80 SE9       29.81F
DICKINSON      LGT RAIN  52  50  93 SE14      29.79F
BEACH          FOG       50  50 100 SE10      29.80F VSB 3
CROSBY         CLOUDY    52  50  93 SE12      29.83F
TIOGA          LGT RAIN  50  50 100 SE12      29.86F VSB 3
WATFORD CITY   CLOUDY    52  50  93 SE10G16   29.79F
BISMARCK       CLOUDY    54  50  86 E15       29.87F
GRAND FORKS    CLEAR     45  43  93 SE9       30.03F
FARGO          CLEAR     46  43  89 SE7       30.02F
BUFFALO SD     CLOUDY    54  52  93 E12       29.70F
RAPID CITY     LGT RAIN  54  52  93 N12       29.68F
$$

REGIONAL REPORTS...WYOMING/IDAHO/WASHINGTON
CITY           SKY/WX    TMP DP  RH WIND       PRES   REMARKS
GILLETTE       CLOUDY    52  48  86 SE7       29.75S
SHERIDAN       CLOUDY    54  50  86 CALM      29.76F
CODY           PTCLDY    52  37  57 NW7       29.81S
YELLOWSTONE LA MOCLDY    37  36  96 VRB3      30.01F
SALMON         CLOUDY    52  48  86 SE5       29.91S
MULLAN PASS    CLOUDY    43  43 100 VRB6      29.86S
SAND POINT     MOCLDY    46  46 100 CALM      29.75S
SPOKANE        CLOUDY    59  48  67 SW20      29.77S

$$



USA.gov is the U.S. government's official web portal to all federal, state and local government web resources and services.